[[{"header":{"parameterUnit":"m.s-1","parameterCategory":1,"la1":30.2991,"la2":30.254,"lo1":-89.0895,"lo2":-89.0444,"dy":0.0017,"dx":0.0017,"nx":28,"ny":28,"refTime":"2023-09-05T03:00:00:Z","depth":0,"parameterNumber":2,"parameterNumberName":"U-component_of_WINDS"},"data":[0,0,0,0,0,0,0,0,0,0,0,0,0,0,0,0,0,0,0,0,0,0,0,0,0,0,0,0,0,0,0,0,0,0,0,0,0,0,0,0,0,0,0,0,0,0,0,0,0,0,0,0,0,0,0,0,0,0,-4.0619,-4.0619,0,-4.0603,-4.0603,-4.0603,-4.0443,-4.0439,-4.0435,-4.0431,-4.0416,-4.0419,-4.0422,0,0,0,0,0,0,0,0,0,0,0,0,0,-4.0511,-4.0514,-4.0619,-4.0619,-4.0618,-4.0603,-4.0603,-4.0603,-4.0444,-4.0439,-4.0434,-4.043,-4.0415,-4.0419,-4.0423,0,0,0,0,0,0,0,0,0,0,0,0,0,-4.0533,-4.0515,-4.0619,-4.0537,-4.053,-4.0603,-4.0603,-4.0603,-4.0445,-4.0439,-4.0433,-4.0427,-4.0413,-4.0418,-4.0423,-4.0574,0,0,-4.0438,-4.044,0,0,0,0,0,0,0,0,-4.0532,-4.0537,-4.0549,-4.0543,-4.0535,-4.0519,-4.0559,-4.0593,-4.0446,-4.0477,-4.0431,-4.0424,-4.0455,-4.0456,-4.0466,-4.0573,-4.0572,-4.0439,-4.0442,-4.0444,-4.0445,0,0,0,0,0,0,0,-4.0531,-4.0537,-4.0612,-4.055,-4.0541,-4.0502,-4.0498,-4.0565,-4.05,-4.0474,-4.0462,-4.0463,-4.045,-4.0462,-4.0465,-4.0572,-4.0439,-4.0443,-4.0446,-4.0448,-4.0801,-4.0807,0,0,0,0,0,0,-4.0541,-4.0537,-4.0613,-4.0612,-4.0519,-4.0508,-4.0504,-4.053,-4.0499,-4.0488,-4.0468,-4.0455,-4.0456,-4.0459,-4.0464,-4.0637,-4.0444,-4.0448,-4.0451,-4.0795,-4.0803,-4.0809,0,0,0,0,0,0,-4.0539,-4.0549,-4.0614,-4.0571,-4.0577,-4.0517,-4.0547,-4.0533,-4.0545,-4.0494,-4.0482,-4.0492,-4.0452,-4.0457,-4.0547,-4.0634,-4.0451,-4.0455,-4.0787,-4.0797,-4.0806,-4.0985,0,0,0,0,0,0,-4.0536,-4.0549,-4.0606,-4.0574,-4.0579,-4.0698,-4.0552,-4.0537,-4.0554,-4.0537,-4.0514,-4.0504,-4.0448,-4.0541,-4.0552,-4.0637,-4.0459,-4.0779,-4.0792,-4.0803,-4.0971,-4.1,-4.1024,0,0,0,0,0,-4.0533,-4.0657,-4.0609,-4.0619,-4.0649,-4.0703,-4.0706,-4.0639,-4.0562,-4.0617,-4.0585,-4.0505,-4.0624,-4.0552,-4.0563,-4.0651,-4.0773,-4.0788,-4.0802,-4.0959,-4.0994,-4.1024,0,0,0,0,0,0,-4.07,-4.0651,-4.0598,-4.0715,-4.0715,-4.0676,-4.0744,-4.0678,-4.0699,-4.0683,-4.0599,-4.0595,-4.0698,-4.0684,-4.0605,-4.0795,-4.0684,-4.0702,-4.08,-4.0833,-4.0859,-4.0859,-4.0463,0,0,0,0,0,-4.075,-4.0799,-4.0753,-4.0861,-4.0864,-4.0805,-4.0826,-4.0774,-4.0771,-4.0769,-4.0743,-4.0743,-4.078,-4.0806,-4.0837,-4.097,-4.0961,-4.1036,-4.1062,-4.1084,-4.11,-4.1168,-4.12,-4.0857,-4.0857,-4.0856,0,0,-4.0854,-4.0834,-4.0869,-4.0894,-4.0887,-4.0939,-4.0806,-4.0866,-4.0903,-4.0779,-4.0862,-4.0844,-4.0838,-4.095,-4.0998,-4.0941,-4.1193,-4.1103,-4.1121,-4.1124,-4.1186,-4.1218,-4.1247,-4.0867,-4.0865,-4.0863,0,0,-4.107,-4.1061,-4.1148,-4.1145,-4.1137,-4.1098,-4.112,-4.1092,-4.1075,-4.1158,-4.1065,-4.1109,-4.1175,-4.1174,-4.1182,-4.1401,-4.1327,-4.1414,-4.155,-4.1618,-4.1645,-4.1668,-4.1745,-4.1773,-4.1429,-4.143,-4.143,0,-4.12,-4.1274,-4.1202,-4.1269,-4.1282,-4.1173,-4.1261,-4.1261,-4.1265,-4.1277,-4.1213,-4.1294,-4.1282,-4.1392,-4.1445,-4.1457,-4.1478,-4.1414,-4.1647,-4.167,-4.1691,-4.1762,-4.1792,-4.144,-4.1439,-4.1438,-4.1437,0,-4.1434,-4.1488,-4.156,-4.1566,-4.1588,-4.1665,-4.1604,-4.1636,-4.1583,-4.1551,-4.1637,-4.1619,-4.1645,-4.1668,-4.1617,-4.1771,-4.1736,-4.1662,-4.1548,-4.1735,-4.1801,-4.1828,-4.1455,-4.1451,-4.1448,-4.1446,0,0,-4.1751,-4.1718,-4.1745,-4.1746,-4.1731,-4.1771,-4.1844,-4.1869,-4.1897,-4.1904,-4.1962,-4.2022,-4.1953,-4.1963,-4.1912,-4.1971,-4.2144,-4.1889,-4.1888,-4.1935,-4.2311,-4.2365,-4.2398,-4.2097,-4.2102,-4.2106,-4.2311,0,-4.1957,-4.2079,-4.2017,-4.2146,-4.2194,-4.2093,-4.2156,-4.2154,-4.2127,-4.2163,-4.2133,-4.2175,-4.2082,-4.2087,-4.2142,-4.2112,-4.2218,-4.2096,-4.2149,-4.2152,-4.2151,-4.2433,-4.249,-4.2684,-4.2337,-4.2341,-4.2344,0,-4.2212,-4.223,-4.2365,-4.2341,-4.2359,-4.2417,-4.2436,-4.2473,-4.2469,-4.2444,-4.2457,-4.2392,-4.2462,-4.2353,-4.2448,-4.2366,-4.2385,-4.2374,-4.2379,-4.2379,-4.2257,-4.2438,-4.2745,-4.2774,-4.2384,-4.2381,-4.2378,0,-4.2427,-4.2486,-4.2573,-4.2578,-4.2553,-4.2596,-4.2588,-4.2578,-4.2598,-4.2615,-4.2626,-4.2652,-4.2665,-4.2686,-4.263,-4.2556,-4.2733,-4.2619,-4.2713,-4.2715,-4.2752,-4.275,-4.3064,-4.277,-4.2769,-4.2769,-4.2768,0,-4.2662,-4.2748,-4.2669,-4.2723,-4.2817,-4.2746,-4.284,-4.2821,-4.2814,-4.2862,-4.2777,-4.2824,-4.2748,-4.2788,-4.2745,-4.283,-4.2837,-4.2819,-4.2806,-4.2825,-4.2827,-4.2834,-4.2818,-4.2777,-4.2775,-4.2773,-4.2772,0,-4.2915,-4.2867,-4.2955,-4.2926,-4.292,-4.2991,-4.2965,-4.3013,-4.2981,-4.3044,-4.3054,-4.3004,-4.3046,-4.2993,-4.3031,-4.3002,-4.3117,-4.3085,-4.3118,-4.3108,-4.3205,-4.3196,-4.3532,-4.3572,-4.3255,-4.3258,-4.3261,0,-4.3066,-4.313,-4.3108,-4.3134,-4.3131,-4.3175,-4.3195,-4.3129,-4.3152,-4.3154,-4.3203,-4.3239,-4.3263,-4.3336,-4.3303,-4.3332,-4.3298,-4.3414,-4.3302,-4.3319,-4.3297,-4.3293,-4.3298,-4.3436,-4.344,-4.3443,-4.3446,0,-4.3339,-4.3313,-4.3344,-4.3369,-4.3395,-4.3411,-4.342,-4.3447,-4.3378,-4.3409,-4.3452,-4.3472,-4.3511,-4.3547,-4.3568,-4.3559,-4.3491,-4.3482,-4.3505,-4.3523,-4.3539,-4.353,-4.3178,-4.3474,-4.3471,-4.3469,-4.3467,-4.3466,-4.3544,-4.3596,-4.3588,-4.3627,-4.3628,-4.3639,-4.3683,-4.3657,-4.3692,-4.3718,-4.3678,-4.3732,-4.3727,-4.3747,-4.3747,-4.3788,-4.3738,-4.3772,-4.378,-4.3788,-4.3802,-4.3536,-4.3792,-4.3791,-4.379,-4.3789,-4.3789,0,-4.381,-4.3801,-4.3838,-4.3854,-4.3884,-4.382,-4.3827,-4.3857,-4.3905,-4.3907,-4.3934,-4.3984,-4.4019,-4.399,-4.4019,-4.4058,-4.4028,-4.4068,-4.4063,-4.4062,-4.3846,-4.3822,-4.4092,-4.4092,-4.4092,-4.4092,-4.4092,-4.4092,-4.3952,-4.4036,-4.4009,-4.4093,-4.4083,-4.4135,-4.4145,-4.4155,-4.4156,-4.4215,-4.4245,-4.4226,-4.4215,-4.4243,-4.4273,-4.4264,-4.4277,-4.4328,-4.4308,-4.4107,-4.4077,-4.4048,-4.4025,-4.4333,-4.4333,-4.4519,-4.4521,-4.4522]},{"header":{"parameterUnit":"m.s-1","parameterCategory":1,"la1":30.2991,"la2":30.254,"lo1":-89.0895,"lo2":-89.0444,"dy":0.0017,"dx":0.0017,"nx":28,"ny":28,"refTime":"2023-09-05T03:00:00:Z","depth":0,"parameterNumber":3,"parameterNumberName":"V-component_of_WINDS"},"data":[0,0,0,0,0,0,0,0,0,0,0,0,0,0,0,0,0,0,0,0,0,0,0,0,0,0,0,0,0,0,0,0,0,0,0,0,0,0,0,0,0,0,0,0,0,0,0,0,0,0,0,0,0,0,0,0,0,0,0.1354,0.1353,0,0.1285,0.1285,0.1284,0.118,0.1178,0.1176,0.1174,0.1109,0.1109,0.1109,0,0,0,0,0,0,0,0,0,0,0,0,0,0.14,0.1399,0.1354,0.1353,0.1352,0.1285,0.1285,0.1284,0.118,0.1178,0.1176,0.1174,0.1109,0.1109,0.1109,0,0,0,0,0,0,0,0,0,0,0,0,0,0.1361,0.1399,0.1354,0.1292,0.1286,0.1286,0.1284,0.1283,0.1181,0.1178,0.1175,0.1172,0.1109,0.1109,0.1109,0.1164,0,0,0.1109,0.1109,0,0,0,0,0,0,0,0,0.1363,0.1359,0.1302,0.1297,0.129,0.1238,0.1276,0.1244,0.1181,0.1221,0.1174,0.1171,0.1154,0.115,0.1144,0.1161,0.1159,0.1109,0.1109,0.1109,0.1109,0,0,0,0,0,0,0,0.1366,0.1361,0.1327,0.1302,0.1294,0.127,0.1261,0.127,0.1204,0.1217,0.1209,0.1203,0.115,0.1144,0.1142,0.1158,0.1109,0.1109,0.1109,0.1109,0.1218,0.1221,0,0,0,0,0,0,0.1377,0.1364,0.1329,0.1325,0.132,0.1271,0.1261,0.1258,0.1204,0.1193,0.1205,0.1198,0.1146,0.1142,0.1139,0.1201,0.1109,0.1109,0.1109,0.1215,0.1219,0.1222,0,0,0,0,0,0,0.1378,0.1375,0.1332,0.1342,0.1335,0.1273,0.127,0.1258,0.1251,0.1195,0.1183,0.121,0.1143,0.1139,0.1159,0.1197,0.1109,0.1109,0.1212,0.1216,0.1221,0.1325,0,0,0,0,0,0,0.138,0.1376,0.1395,0.1344,0.1335,0.1352,0.1272,0.1258,0.1251,0.1241,0.1196,0.1186,0.1141,0.1159,0.1159,0.1195,0.1109,0.1208,0.1214,0.1219,0.1318,0.1332,0.1345,0,0,0,0,0,0.1382,0.1428,0.1397,0.1393,0.1357,0.1354,0.1349,0.1294,0.1254,0.1274,0.1238,0.1188,0.1193,0.1162,0.1161,0.1198,0.1206,0.1212,0.1219,0.1312,0.1329,0.1344,0,0,0,0,0,0,0.1487,0.142,0.1384,0.1415,0.1391,0.1336,0.1359,0.1315,0.1302,0.1294,0.1228,0.1219,0.1247,0.1225,0.1191,0.1249,0.1192,0.1198,0.1263,0.1279,0.1293,0.1297,0.1109,0,0,0,0,0,0.1513,0.1515,0.1457,0.1489,0.1479,0.1422,0.1418,0.1378,0.1351,0.134,0.1305,0.1283,0.1279,0.1278,0.1271,0.1314,0.1304,0.1339,0.1353,0.1364,0.1371,0.1392,0.1408,0.1244,0.1244,0.1244,0,0,0.1568,0.1532,0.1537,0.1509,0.1486,0.149,0.1414,0.1421,0.1424,0.1342,0.1358,0.1332,0.1302,0.1334,0.1346,0.1316,0.1414,0.1373,0.1382,0.1382,0.1401,0.1416,0.143,0.1248,0.1247,0.1247,0,0,0.1671,0.1643,0.1667,0.1645,0.161,0.1572,0.1578,0.153,0.151,0.1524,0.1463,0.1467,0.1462,0.1443,0.1433,0.153,0.1484,0.153,0.16,0.1622,0.1635,0.1646,0.1681,0.1694,0.1536,0.1537,0.1537,0,0.1744,0.1746,0.1685,0.1696,0.1687,0.1612,0.1637,0.1619,0.1585,0.158,0.1547,0.1539,0.1514,0.154,0.1564,0.1558,0.1564,0.1534,0.1638,0.1648,0.1658,0.1691,0.1704,0.1543,0.1542,0.1541,0.1541,0,0.1838,0.184,0.1864,0.1832,0.1825,0.1843,0.1787,0.1788,0.1749,0.1715,0.1732,0.1699,0.1685,0.1688,0.1651,0.171,0.1692,0.165,0.159,0.168,0.171,0.1722,0.1551,0.1549,0.1547,0.1546,0,0,0.2003,0.1937,0.1947,0.1931,0.1888,0.1889,0.1906,0.189,0.1892,0.1872,0.1884,0.1882,0.1842,0.1831,0.1791,0.1811,0.189,0.1765,0.1763,0.179,0.1954,0.1987,0.2002,0.186,0.1862,0.1863,0.1957,0,0.2096,0.2117,0.2064,0.2099,0.2101,0.2031,0.2045,0.2021,0.199,0.1989,0.1956,0.1955,0.1902,0.1895,0.1911,0.1877,0.1922,0.187,0.1872,0.1872,0.1881,0.2017,0.2051,0.2141,0.1968,0.197,0.1971,0,0.2207,0.2191,0.2226,0.2181,0.218,0.2194,0.2176,0.2175,0.2148,0.2124,0.2112,0.2065,0.208,0.2023,0.2042,0.2008,0.2006,0.1989,0.1992,0.1989,0.1927,0.2019,0.2168,0.2182,0.1989,0.1988,0.1986,0,0.2324,0.2312,0.2331,0.232,0.2268,0.2279,0.2259,0.2228,0.2223,0.2208,0.2204,0.2192,0.2186,0.2179,0.2131,0.2094,0.2156,0.2095,0.2138,0.2139,0.2154,0.2153,0.2305,0.2153,0.2153,0.2153,0.2153,0,0.2433,0.2458,0.2383,0.2395,0.242,0.236,0.2388,0.236,0.2334,0.2341,0.228,0.2288,0.2224,0.2226,0.2189,0.2211,0.2209,0.2191,0.2181,0.2196,0.2198,0.2193,0.2186,0.2156,0.2156,0.2155,0.2154,0,0.2568,0.2518,0.2535,0.2485,0.2473,0.2494,0.2452,0.2462,0.2428,0.2437,0.2436,0.2383,0.2382,0.2333,0.2322,0.2297,0.2335,0.2314,0.2344,0.2337,0.2382,0.2379,0.2535,0.2553,0.2391,0.2393,0.2394,0,0.2641,0.2657,0.2609,0.2608,0.259,0.259,0.2584,0.2527,0.2524,0.2494,0.2508,0.2502,0.2493,0.2495,0.2457,0.2448,0.2426,0.2482,0.2424,0.244,0.2427,0.2426,0.2428,0.2494,0.2496,0.2497,0.2499,0,0.2775,0.275,0.2743,0.2728,0.2722,0.2708,0.269,0.2694,0.2631,0.263,0.2628,0.2621,0.261,0.2605,0.259,0.257,0.2525,0.2517,0.2527,0.2542,0.2559,0.2551,0.2377,0.2514,0.2512,0.2511,0.251,0.251,0.288,0.2892,0.286,0.2855,0.2835,0.282,0.2827,0.2794,0.279,0.2775,0.2742,0.2745,0.2718,0.2693,0.2678,0.2681,0.2653,0.2666,0.267,0.2674,0.2683,0.2559,0.2678,0.2677,0.2677,0.2676,0.2676,0,0.3011,0.2987,0.2983,0.2959,0.2956,0.2912,0.2891,0.2891,0.2894,0.2872,0.2865,0.2863,0.2858,0.282,0.2811,0.2821,0.28,0.2821,0.2819,0.2816,0.2708,0.2701,0.2838,0.2838,0.2838,0.2838,0.2838,0.2838,0.3079,0.3097,0.3069,0.3077,0.3053,0.3054,0.3046,0.3033,0.3015,0.3015,0.301,0.2984,0.2957,0.2945,0.294,0.2929,0.2929,0.2956,0.2939,0.2839,0.2823,0.2808,0.2801,0.2957,0.2957,0.3046,0.3046,0.3047]}]]